Wetbulb
66.74 66.14 65.76 65.61 65.71 65.86 65.95 65.89 65.97 65.93 66.28 66.75 67.28 66.72 66.75 67.41 62.20 63.18 64.99 63.16 67.63 67.95 67.57 67.31 66.74 66.69 67.04 66.93 66.91 66.73 67.09 67.64 66.75
67.60 66.34 66.42 66.49 66.62 66.79 66.85 66.69 66.34 66.22 66.19 66.25 66.14 66.13 66.90 63.35 63.69 63.77 63.68 64.05 67.67 67.84 68.27 68.49 68.77 68.82 68.48 67.90 67.75 68.30 68.48 67.68 67.46
68.35 66.97 66.46 66.44 66.67 67.05 67.22 67.03 66.57 66.48 66.66 66.74 66.48 66.64 66.62 64.11 63.44 63.96 64.22 67.83 67.97 68.87 68.09 67.75 67.99 68.03 68.04 69.19 68.81 68.53 68.86 68.94 68.86
68.84 67.99 67.12 66.91 66.96 67.36 66.95 67.08 66.92 67.02 67.02 66.66 66.31 66.90 66.11 62.39 62.79 62.01 63.17 67.44 67.11 67.05 67.01 67.26 66.69 67.67 68.10 68.11 68.51 68.68 68.52 68.46 68.38
69.77 68.96 68.36 67.32 67.20 67.78 67.29 67.41 67.57 67.24 66.61 65.77 66.34 65.53 64.37 60.62 59.16 59.07 61.68 66.08 65.97 65.88 65.71 65.82 67.76 66.71 66.31 66.33 66.09 65.92 65.85 65.68 65.68
66.97 67.18 68.09 68.31 67.74 67.65 67.29 67.37 67.01 66.82 65.93 65.82 64.96 62.57 56.93 56.17 56.22 57.85 64.10 64.36 64.57 64.58 65.16 65.77 65.09 64.48 64.29 63.76 63.36 63.37 63.48 63.52 63.56
67.11 65.86 67.21 68.54 68.36 68.00 67.03 66.46 66.23 64.63 61.54 59.37 60.47 54.63 53.25 54.35 53.89 55.94 62.14 61.62 61.48 63.16 64.45 62.99 62.73 62.74 62.40 61.78 61.25 61.16 61.37 61.59 61.64
64.80 64.64 65.27 64.61 64.48 63.80 64.80 63.37 61.82 59.31 57.88 54.60 52.30 52.14 49.59 51.44 52.90 57.68 60.47 61.70 62.14 64.56 62.51 61.46 60.83 60.57 60.24 59.80 59.52 59.21 59.47 59.58 59.58
62.25 62.72 62.56 61.96 61.24 60.48 60.41 60.00 55.48 53.86 51.37 49.83 47.20 46.75 45.69 48.44 49.88 55.13 60.53 59.94 61.63 62.09 60.02 59.31 58.46 57.78 57.35 57.30 57.01 56.96 57.25 57.51 57.58
59.79 60.06 60.64 60.92 60.09 59.40 57.12 54.25 51.96 49.21 47.14 45.67 45.06 44.51 43.09 45.93 49.24 52.48 59.31 60.00 59.86 58.56 57.55 56.47 55.58 55.38 55.40 55.35 55.25 55.39 55.47 55.85 55.87
58.60 58.76 58.99 58.75 57.63 56.58 53.51 50.84 48.61 45.75 44.84 44.79 43.67 42.87 42.09 42.67 47.04 49.43 53.38 57.31 56.19 55.26 54.50 53.70 53.17 53.20 53.51 54.23 54.61 54.50 54.67 55.06 54.92
59.26 57.71 55.92 54.27 53.75 50.96 48.87 46.70 45.71 45.08 44.38 42.32 42.72 42.36 41.48 41.92 44.47 47.05 47.80 49.58 53.28 51.53 50.74 50.29 50.65 50.63 51.74 52.86 53.62 53.46 53.19 53.47 53.76
58.85 56.38 53.79 52.07 51.19 49.23 46.94 45.71 44.13 42.07 41.45 40.42 40.49 41.08 42.39 41.49 42.09 43.74 44.46 44.17 44.83 47.77 47.88 48.19 48.87 48.45 50.37 51.00 51.99 52.22 52.14 52.34 52.30
57.33 54.79 52.40 51.64 48.49 46.18 45.83 42.49 42.15 39.78 39.70 40.88 39.50 40.82 41.92 41.35 43.24 40.20 40.27 41.16 41.54 41.01 46.00 47.02 46.95 47.28 48.74 49.83 51.16 50.68 50.43 50.93 50.99
56.43 53.89 52.24 49.36 45.82 44.34 42.82 41.01 39.57 38.89 38.41 42.13 41.92 40.41 41.41 40.71 39.79 39.92 41.80 40.40 40.46 39.56 39.60 38.16 38.95 45.35 45.85 47.02 48.31 49.18 49.63 49.24 49.89
54.47 51.80 49.20 46.79 45.21 43.42 42.17 40.52 39.18 37.93 37.58 38.61 38.66 39.60 39.75 40.27 40.03 40.21 39.32 39.90 39.88 39.35 37.79 37.00 36.68 37.07 43.61 43.91 46.01 47.35 47.82 48.48 49.05
52.13 49.35 47.17 45.55 43.89 41.98 41.45 40.83 38.92 37.86 37.07 36.23 37.22 35.72 37.25 38.46 39.30 39.26 40.14 37.65 38.04 37.91 37.79 36.58 36.25 34.90 34.94 37.97 44.55 44.34 45.63 47.56 48.65
51.31 47.18 45.93 43.35 42.72 41.58 40.59 40.33 40.02 37.44 36.94 36.58 36.11 33.86 33.37 32.04 35.91 36.69 36.91 35.61 35.26 34.72 35.71 36.55 36.40 35.37 34.45 37.81 38.93 42.98 44.32 46.60 48.28
50.21 47.41 46.66 43.81 42.93 41.01 40.28 40.61 39.40 39.44 36.71 37.48 37.92 33.89 33.05 30.82 30.01 33.48 34.42 34.29 35.20 33.50 33.70 33.91 34.60 34.84 34.56 38.22 41.69 43.21 43.77 45.78 47.70
49.05 48.22 48.13 44.76 43.51 40.56 39.20 38.93 38.07 38.71 37.48 36.50 34.33 32.75 32.63 31.55 29.74 28.15 30.42 32.21 32.89 33.29 32.96 33.01 32.92 33.92 34.20 33.92 36.98 43.08 43.54 45.43 46.76
MSLP
1016.93 1017.18 1017.28 1017.41 1017.49 1017.59 1017.66 1017.79 1017.93 1018.01 1018.02 1018.02 1017.99 1018.08 1018.15 1018.18 1018.41 1018.36 1018.20 1018.30 1018.18 1018.15 1018.10 1018.13 1018.10 1018.06 1017.98 1017.91 1017.85 1017.81 1017.78 1017.86 1017.80
1016.95 1017.21 1017.34 1017.45 1017.53 1017.58 1017.68 1017.83 1017.98 1018.11 1018.12 1018.05 1018.04 1018.08 1018.22 1018.31 1018.22 1018.26 1018.25 1018.34 1018.19 1018.02 1017.99 1017.92 1017.91 1017.93 1017.83 1017.78 1017.77 1017.69 1017.68 1017.67 1017.64
1016.93 1017.13 1017.31 1017.40 1017.52 1017.60 1017.70 1017.83 1017.97 1017.99 1018.06 1018.05 1018.13 1018.18 1018.26 1018.30 1018.29 1018.47 1018.36 1018.21 1018.21 1018.09 1018.09 1017.98 1017.92 1017.98 1017.95 1017.77 1017.78 1017.68 1017.62 1017.48 1017.47
1016.81 1017.11 1017.25 1017.31 1017.50 1017.67 1017.73 1017.83 1017.94 1018.01 1018.08 1018.11 1018.12 1018.23 1018.26 1018.68 1018.51 1018.57 1018.53 1018.33 1018.28 1018.31 1018.24 1018.06 1018.11 1018.15 1018.19 1018.07 1018.03 1017.97 1017.89 1017.73 1017.70
1016.62 1016.98 1017.21 1017.37 1017.46 1017.58 1017.70 1017.71 1017.78 1017.96 1018.05 1018.02 1018.11 1018.25 1018.30 1018.42 1018.75 1018.75 1018.75 1018.52 1018.42 1018.52 1018.46 1018.34 1018.28 1018.31 1018.55 1018.51 1018.49 1018.51 1018.39 1018.34 1018.15
1016.59 1016.89 1017.09 1017.23 1017.43 1017.51 1017.69 1017.76 1017.77 1017.96 1018.10 1018.11 1018.27 1018.27 1018.64 1018.80 1018.92 1018.97 1018.73 1018.63 1018.52 1018.63 1018.65 1018.58 1018.74 1018.64 1018.78 1019.00 1018.94 1018.91 1018.80 1018.67 1018.55
1016.35 1016.81 1017.05 1017.13 1017.27 1017.33 1017.53 1017.65 1017.85 1018.00 1018.21 1018.43 1018.46 1018.56 1018.63 1019.03 1019.06 1019.04 1018.73 1018.73 1018.75 1018.68 1018.89 1018.93 1018.97 1019.02 1019.08 1019.19 1019.26 1019.15 1019.11 1019.03 1018.85
1016.69 1017.06 1017.09 1017.29 1017.33 1017.36 1017.46 1017.76 1017.91 1018.04 1018.18 1018.54 1018.56 1018.49 1018.79 1019.18 1019.35 1019.20 1018.92 1018.95 1018.88 1019.07 1019.25 1019.28 1019.31 1019.39 1019.32 1019.45 1019.39 1019.43 1019.32 1019.30 1019.19
1016.64 1016.87 1017.05 1017.23 1017.36 1017.56 1017.76 1017.85 1017.94 1018.07 1018.20 1018.28 1018.60 1018.76 1019.13 1019.37 1019.53 1019.40 1019.12 1019.05 1018.92 1019.31 1019.61 1019.61 1019.69 1019.71 1019.66 1019.69 1019.64 1019.71 1019.49 1019.51 1019.48
1016.17 1016.46 1016.63 1016.86 1017.22 1017.44 1017.69 1017.88 1018.10 1018.29 1018.45 1018.63 1018.74 1018.96 1019.21 1019.46 1019.61 1019.56 1019.32 1019.36 1019.47 1019.77 1019.90 1019.93 1020.04 1020.01 1019.97 1019.98 1019.70 1019.85 1019.73 1019.66 1019.63
1015.70 1016.08 1016.33 1016.63 1016.74 1017.12 1017.54 1017.79 1018.14 1018.55 1018.66 1018.73 1018.93 1019.03 1019.20 1019.54 1019.73 1019.74 1019.69 1019.62 1019.95 1020.10 1020.19 1020.33 1020.38 1020.44 1020.25 1020.20 1019.87 1019.92 1019.97 1019.82 1019.77
1015.30 1015.96 1016.52 1016.61 1016.80 1016.96 1017.31 1017.83 1018.23 1018.70 1018.86 1019.02 1019.02 1019.04 1019.11 1019.48 1019.76 1019.92 1019.99 1020.07 1020.26 1020.30 1020.44 1020.54 1020.56 1020.62 1020.42 1020.30 1020.12 1020.07 1020.16 1020.11 1019.98
1015.04 1015.61 1016.16 1016.45 1016.80 1017.17 1017.63 1018.08 1018.57 1018.88 1019.12 1019.26 1019.21 1019.27 1019.17 1019.39 1019.72 1019.95 1020.20 1020.38 1020.52 1020.52 1020.56 1020.59 1020.69 1020.68 1020.51 1020.40 1020.27 1020.12 1020.24 1020.21 1020.19
1014.56 1015.29 1015.82 1016.15 1016.79 1017.34 1017.77 1018.43 1018.64 1019.16 1019.36 1019.35 1019.35 1019.37 1019.39 1019.51 1019.68 1020.02 1020.28 1020.31 1020.50 1020.63 1020.52 1020.62 1020.82 1020.80 1020.66 1020.47 1020.32 1020.24 1020.26 1020.21 1020.24
1014.40 1015.21 1015.69 1016.24 1016.90 1017.45 1017.95 1018.50 1018.93 1019.30 1019.45 1019.38 1019.52 1019.52 1019.51 1019.59 1019.85 1020.02 1020.02 1020.17 1020.31 1020.51 1020.64 1020.85 1020.94 1020.82 1020.74 1020.71 1020.62 1020.37 1020.21 1020.22 1020.20
1014.15 1014.91 1015.60 1016.17 1016.71 1017.26 1017.63 1018.47 1019.07 1019.61 1019.59 1019.80 1020.03 1019.98 1019.71 1019.74 1019.95 1020.00 1020.13 1020.22 1020.29 1020.44 1020.69 1020.83 1020.82 1020.85 1020.77 1020.80 1020.67 1020.37 1020.22 1020.20 1020.13
1013.85 1014.83 1015.64 1016.10 1016.67 1017.30 1017.69 1017.96 1019.04 1019.62 1019.65 1019.93 1020.42 1020.66 1020.36 1019.99 1020.01 1020.13 1020.19 1020.31 1020.31 1020.49 1020.58 1020.60 1020.58 1020.68 1020.80 1020.76 1020.48 1020.45 1020.37 1020.15 1019.92
1013.86 1014.57 1015.37 1016.02 1016.54 1017.16 1017.56 1018.06 1018.47 1019.43 1019.89 1019.81 1020.02 1020.77 1020.96 1020.89 1020.34 1020.27 1020.39 1020.47 1020.56 1020.79 1020.79 1020.69 1020.59 1020.53 1020.55 1020.43 1020.40 1020.33 1020.21 1019.96 1019.63
1013.95 1014.71 1015.49 1016.04 1016.53 1017.20 1017.56 1018.03 1018.48 1018.79 1019.73 1020.03 1020.14 1020.25 1020.63 1021.12 1021.24 1020.82 1020.73 1020.57 1020.65 1020.91 1020.89 1020.80 1020.70 1020.55 1020.41 1020.27 1020.13 1020.00 1019.87 1019.59 1019.27
1014.11 1014.79 1015.72 1016.19 1016.64 1017.34 1017.63 1018.08 1018.40 1018.85 1019.43 1019.91 1020.46 1020.67 1020.90 1021.06 1021.65 1021.85 1021.38 1020.97 1020.75 1020.78 1020.83 1020.69 1020.56 1020.48 1020.32 1020.26 1020.04 1019.73 1019.53 1019.27 1018.99
Wind_Speed
13 13 13 12 12 11 11 10 9 8 7 6 6 3 4 6 5 3 7 4 6 4 3 1 2 4 4 4 4 5 5 5 4
14 13 13 12 12 11 10 9 8 7 5 5 3 3 5 4 4 3 5 3 5 3 4 4 5 6 4 5 6 6 7 6 6
13 12 11 11 10 9 8 8 7 6 5 4 1 3 5 5 5 4 4 5 6 9 8 8 9 9 8 13 7 5 7 7 7
14 12 11 11 9 7 7 7 7 6 5 3 1 4 6 5 3 4 2 7 7 8 8 9 8 9 13 14 15 15 15 16 16
13 13 11 10 9 8 8 8 7 6 4 3 2 3 6 3 5 4 3 8 8 7 8 7 13 12 12 13 13 14 14 14 14
9 11 11 11 10 9 7 6 6 4 2 3 3 4 4 5 3 2 8 8 7 7 8 11 11 11 11 12 12 12 12 13 13
7 9 11 11 10 9 8 7 5 4 1 2 3 1 5 4 4 2 9 6 4 7 11 10 10 10 11 11 11 11 11 12 12
4 3 3 3 6 3 4 2 2 4 3 2 3 3 5 3 3 4 9 7 6 11 10 11 10 10 10 10 10 10 10 10 11
5 4 5 4 3 4 4 2 3 5 4 5 5 5 4 3 2 2 8 7 7 10 9 10 10 9 9 9 10 10 9 9 10
6 5 5 4 4 4 3 4 4 4 5 4 4 4 5 5 3 2 10 11 10 9 8 9 9 9 9 10 10 10 10 9 10
6 5 4 4 5 5 5 5 5 3 3 3 3 4 5 5 5 3 4 11 9 8 8 8 8 9 10 10 11 10 11 10 11
6 5 5 4 4 7 5 5 4 4 2 3 2 3 4 5 6 4 4 5 7 7 7 7 8 8 10 11 11 10 10 11 12
7 6 5 5 5 5 4 4 4 4 3 1 2 2 3 5 6 5 4 4 3 5 6 7 8 7 11 10 11 11 10 12 12
8 6 5 6 5 5 4 3 3 2 2 1 1 1 3 3 4 6 6 6 5 3 2 5 7 9 11 11 12 10 10 12 11
8 5 6 5 5 5 4 4 4 2 1 2 2 1 2 3 3 4 3 4 4 4 3 3 2 7 8 10 12 12 11 10 11
9 6 7 6 7 6 7 4 4 3 3 2 3 2 2 1 2 3 3 4 3 3 4 3 1 1 5 7 12 11 11 12 13
10 9 7 7 6 6 5 6 3 2 2 3 2 2 4 3 2 1 2 4 2 3 2 1 1 2 1 3 10 9 11 14 14
9 8 7 7 5 6 5 5 6 4 1 3 4 2 3 1 3 1 0 2 2 2 3 3 2 3 2 4 4 7 11 15 15
8 7 6 7 5 6 5 4 3 5 4 2 2 3 3 3 3 3 2 2 3 2 3 3 4 4 4 6 7 9 13 16 17
9 10 8 7 5 5 6 5 5 2 4 3 2 2 2 3 3 4 4 3 2 3 3 4 4 6 5 5 7 12 14 17 20
Wind_Direction
121 119 119 119 118 115 112 107 105 110 107 94 86 48 351 337 330 208 108 111 81 55 59 29 329 313 318 312 297 294 306 260 290
128 128 126 122 120 114 109 110 111 109 102 87 72 357 335 336 330 114 109 93 64 35 25 17 12 9 307 282 276 289 293 286 282
138 136 133 126 120 114 116 114 115 117 114 108 84 316 335 348 348 95 102 75 56 65 45 39 34 32 23 39 24 351 345 328 314
152 149 146 140 134 129 128 129 128 128 129 143 227 307 312 44 67 81 25 70 62 60 54 56 50 56 56 52 51 52 50 49 45
169 160 159 152 145 142 146 144 144 150 160 198 226 321 345 95 80 78 50 62 61 65 58 58 75 65 60 55 50 46 44 42 42
192 162 164 160 160 157 161 163 159 151 198 265 7 31 58 85 91 72 64 57 63 72 73 73 65 65 63 54 47 41 40 37 37
137 157 164 168 170 171 180 181 156 146 216 352 338 65 77 103 88 68 69 60 75 87 85 74 66 63 60 50 42 35 32 32 32
133 145 162 175 184 186 187 144 150 147 144 135 85 63 81 94 77 67 74 61 66 95 81 71 64 57 53 42 36 30 29 26 24
160 166 180 188 180 194 170 182 160 96 94 85 81 66 80 116 96 65 77 77 94 89 75 67 59 50 42 37 28 19 16 15 13
167 177 178 188 174 189 157 145 115 100 79 64 90 78 81 117 109 88 86 87 87 84 68 58 48 42 32 23 21 9 2 360 2
174 172 173 171 156 149 145 128 116 98 91 68 75 102 89 110 127 113 93 103 97 86 68 52 37 24 17 9 11 6 359 356 352
157 152 152 145 136 120 109 99 94 84 54 64 63 103 102 102 136 124 105 97 99 91 70 43 23 14 8 5 5 4 359 353 346
149 148 145 140 122 118 110 111 90 93 74 16 26 104 88 111 129 137 129 127 105 93 77 41 14 10 358 360 354 353 359 353 345
147 145 148 135 125 118 124 81 119 97 45 317 84 106 92 135 119 138 147 147 140 147 94 51 34 12 353 351 346 349 346 345 340
135 138 141 134 124 122 110 112 58 107 86 350 14 235 127 124 127 162 152 151 149 147 111 82 40 16 354 346 341 331 333 334 335
144 145 141 143 141 152 143 123 111 39 15 60 2 357 4 137 183 179 158 179 175 152 130 151 123 25 20 352 331 321 325 328 321
142 146 153 147 134 140 147 136 122 108 21 130 108 8 338 339 261 241 188 172 146 142 161 190 139 142 193 296 328 317 315 314 311
149 142 147 141 133 152 150 145 136 137 33 55 137 111 225 316 336 350 263 110 102 21 357 329 284 238 255 298 294 288 303 308 304
136 129 135 129 126 136 137 140 133 124 147 85 49 77 137 164 331 335 316 63 62 13 333 335 324 294 277 267 259 270 298 304 305
143 141 144 136 127 127 125 127 121 115 133 133 143 70 44 74 121 267 308 345 322 331 347 313 311 314 313 304 283 287 294 302 305